{"data":{"norad_id":58997,"intl_designator":"2023-174DJ","name":"AAC-AIS-SAT3","alt_names":[],"object_type":"PAYLOAD","status":"ACTIVE","operator":null,"country":"UK","launch_date":"2023-11-11","launch_site_code":"AFWTR","launch_vehicle":null,"mission":null,"orbit_class":"UNKNOWN","rcs_meters":null,"size_class":null,"mass_kg":null,"dimensions":null,"purposes":[],"wikipedia_slug":null,"has_3d_model":false,"image_url":null,"decayed_at":null,"tle_current":{"epoch":"2026-09-22T23:24:10.425888Z","epoch_age_seconds":41329,"freshness":"FRESH","line1":"1 58997U 23174DJ  26265.97512067  .00001849  00000+0  22162-3 0  9990","line2":"2 58997  97.6156 310.4008 0006465  12.6489 347.4887 14.85205451155660","mean_motion":14.85205451,"eccentricity":0.0006465,"inclination_deg":97.6156,"raan_deg":310.4008,"arg_perigee_deg":12.6489,"mean_anomaly_deg":347.4887,"bstar":0.00022162,"rev_number":15566,"period_min":96.956282986333,"perigee_km":608.42133306624,"apogee_km":617.46079700433,"semimajor_km":6991.0780650353,"source":"CELESTRAK","updated_at":"2026-09-23T09:00:19.123936Z"}}}